Regional Weather Roundup
Issued by NWS

Home | Current Version | Previous Version | Graphics & Text | Print | Product List | Glossary On
Versions: 1 2 3 4 5 6 7 8 9 10 11 12 13 14 15 16 17 18 19 20 21 22 23 24 25 26 27 28 29 30 31 32 33 34 35 36 37 38 39 40 41 42 43 44 45 46 47 48 49 50
000
ASUS45 KPSR 310710
RWRAZ

ARIZONA REGIONAL HOURLY WEATHER ROUNDUP
NATIONAL WEATHER SERVICE PHOENIX AZ
1200 AM MST SAT JAN 31 2015

NOTE: FAIR INDICATES FEW OR NO CLOUDS BELOW 12,000 FEET WITH NO
SIGNIFICANT WEATHER AND/OR OBSTRUCTIONS TO VISIBILITY.

AZZ001>003-036-310800-
NORTHWEST ARIZONA

CITY           SKY/WX    TMP DP  RH WIND       PRES   REMARKS
BULLHEAD CITY  CLOUDY    55  48  76 N7        29.88S
KINGMAN        CLOUDY    46  44  93 N5        29.87S
$$

AZZ004>008-015-016-018-310800-
NORTH CENTRAL ARIZONA

CITY           SKY/WX    TMP DP  RH WIND       PRES   REMARKS
GRAND CANYON   CLOUDY    38  37  97 VRB3      29.90F FOG
PRESCOTT       MOCLDY    43  40  89 SE5       29.88F
FLAGSTAFF      CLOUDY    37  35  92 SW6       29.90F WCI  32
PAYSON         CLOUDY    43  41  93 CALM      29.92S FOG
$$

AZZ009>014-017-310800-
NORTHEAST ARIZONA

CITY           SKY/WX    TMP DP  RH WIND       PRES   REMARKS
WINSLOW        LGT RAIN  44  41  89 SE5       29.89F
SAINT JOHNS    LGT RAIN  42  41  96 NW8       29.91F
WINDOW ROCK    LGT SNOW  34  31  88 CALM      29.94F FOG
SHOW LOW       LGT RAIN  36  32  87 S13       29.94F WCI  27
$$

AZZ023-310800-
GREATER PHOENIX AREA

CITY           SKY/WX    TMP DP  RH WIND       PRES   REMARKS
PHOENIX        CLOUDY    56  53  90 SE6       29.84F
BUCKEYE          N/A     55  55 100 E5        29.85S
LUKE AFB       CLOUDY    56  54  93 CALM      29.84S
DEER VALLEY    MOCLDY    54  52  93 CALM      29.84F
SCOTTSDALE     CLOUDY    55  52  89 CALM      29.87S
MESA-GATEWAY     N/A     54  54 100 CALM      29.87F
$$

AZZ027-028-310800-
SOUTHWEST MARICOPA COUNTY AND PINAL COUNTY

CITY           SKY/WX    TMP DP  RH WIND       PRES   REMARKS
CASA GRANDE    MOCLDY    54  52  94 CALM      29.86S
GILA BEND      PTSUNNY   58  56  94 CALM      29.84S
$$

AZZ503-504-507>509-310800-
SOUTHEAST ARIZONA

CITY           SKY/WX    TMP DP  RH WIND       PRES   REMARKS
TUCSON         MOCLDY    54  52  93 CALM      29.88F FOG
DAVIS-MONTHAN  LGT RAIN  54  54 100 SE5       29.86F
NOGALES        RAIN      50  47  89 S6        29.90S
SIERRA VISTA   LGT RAIN  47  46  97 CALM      29.91F
SAFFORD        LGT RAIN  47  46  97 S7        29.91F FOG
$$

AZZ020-021-025-026-031-310800-
SOUTHWEST ARIZONA

CITY           SKY/WX    TMP DP  RH WIND       PRES   REMARKS
YUMA           CLOUDY    61  53  75 SW6       29.84F
$$

CAZ031-033-041-043-047-048-061-310800-
SOUTHERN CALIFORNIA

CITY           SKY/WX    TMP DP  RH WIND       PRES   REMARKS
DOWNTOWN L.A.  PTCLDY    59  55  87 E3        29.87R
L.A. AIRPORT   MOCLDY    59  57  93 CALM      29.86F
SAN DIEGO      MOCLDY    61  55  82 CALM      29.90F
BURBANK        MOCLDY    54  52  93 CALM      29.87R
ONTARIO        MOCLDY    56  51  84 CALM      29.88S
RIVERSIDE      MOCLDY    55  51  86 NE3       29.88F
PALM SPRINGS   MOCLDY    59  52  77 NW3       29.87S
EL CENTRO NAS  MOCLDY    54  47  77 W8        29.84F
IMPERIAL       MOCLDY    55  48  77 SW5       29.83F
BLYTHE         CLOUDY    59  54  83 CALM      29.85S
NEEDLES        CLOUDY    56  48  74 NW5       29.86S
$$

NVZ020-UTZ003-310800-
SOUTHERN NEVADA-UTAH

CITY           SKY/WX    TMP DP  RH WIND       PRES   REMARKS
LAS VEGAS      CLOUDY    50  44  80 NE5       29.84S
SALT LAKE CITY CLOUDY    41  36  82 W8        29.97S
$$

NMZ009-TXZ055-310800-
NEW MEXICO-WEST TEXAS

CITY           SKY/WX    TMP DP  RH WIND       PRES   REMARKS
ALBUQUERQUE    CLOUDY    36  32  85 VRB5      30.02F WCI  32
EL PASO        FLURRIES  44  40  85 CALM      30.00F
$$


........................KEY........................
SKY/WX - SKY CONDITION/WEATHER
TMP    - TEMPERATURE IN FAHRENHEIT
DP     - DEW POINT IN FAHRENHEIT
RH     - RELATIVE HUMIDITY IN PERCENT
WIND   - DIRECTION AND SPEED IN MILES PER HOUR (MPH)
VRB    - VARIABLE WIND DIRECTION
PRES   - MEAN SEA LEVEL PRESSURE IN INCHES OF MERCURY
         F - FALLING PRESSURE   R - RISING PRESSURE
         S - STEADY PRESSURE
VSB    - VISIBILITY IN MILES
HX     - HEAT INDEX IN FAHRENHEIT
WCI    - WIND CHILL INDEX IN FAHRENHEIT
TC     - TEMPERATURE IN CELSIUS WHICH IS ALSO KNOWN AS
         TEMPERATURE IN CENTIGRADE
AFB    - AIR FORCE BASE
         LUKE AFB IS LUKE AIR FORCE BASE
         DAVIS-MONTHAN IS DAVIS-MONTHAN AIR FORCE BASE
NAS    - NAVAL AIR STATION
         EL CENTRO NAS IS EL CENTRO NAVAL AIR STATION
N/A    - NOT AVAILABLE



USA.gov is the U.S. government's official web portal to all federal, state and local government web resources and services.